• en France
  • Liste des pays
  • À 7 jours
  • Température de l'eau
  • Carte satellitaire
  • Carte météo
  • Widgets météo
  • user-avatar
    Se connecter

    Météo par heure à Brecon

    Ce jour, 18 Juillet, Mercredi

    Heure Température Précipitation Vent Pression Humidité
    00:00 +13°C° 0 mm 1 m/s 747 mmHg 91%
    01:00 +13°C° 0 mm 2 m/s 747 mmHg 91%
    02:00 +13°C° 0 mm 2 m/s 746 mmHg 92%
    03:00 +13°C° 0 mm 2 m/s 746 mmHg 92%
    04:00 +14°C° 0 mm 2 m/s 747 mmHg 91%
    05:00 +14°C° 0 mm 2 m/s 747 mmHg 91%
    06:00 +15°C° 0 mm 2 m/s 747 mmHg 89%
    07:00 +16°C° 0,1 mm 2 m/s 747 mmHg 86%
    08:00 +17°C° 0,1 mm 2 m/s 747 mmHg 82%
    09:00 +18°C° 0,1 mm 2 m/s 747 mmHg 79%
    10:00 +19°C° 0,1 mm 3 m/s 748 mmHg 75%
    11:00 +20°C° 0,1 mm 3 m/s 748 mmHg 70%
    12:00 +20°C° 0,1 mm 3 m/s 748 mmHg 66%
    13:00 +21°C° 0,1 mm 3 m/s 748 mmHg 65%
    14:00 +21°C° 0,1 mm 3 m/s 748 mmHg 63%
    15:00 +21°C° 0,1 mm 3 m/s 748 mmHg 62%
    16:00 +21°C° 0 mm 3 m/s 748 mmHg 64%
    17:00 +20°C° 0 mm 3 m/s 748 mmHg 66%
    18:00 +20°C° 0 mm 3 m/s 748 mmHg 69%
    19:00 +18°C° 0 mm 3 m/s 748 mmHg 74%
    20:00 +16°C° 0 mm 2 m/s 748 mmHg 80%
    21:00 +15°C° 0 mm 2 m/s 749 mmHg 86%
    22:00 +14°C° 0 mm 2 m/s 749 mmHg 87%
    23:00 +13°C° 0 mm 1 m/s 749 mmHg 88%

    Demain, 19 Juillet, Jeudi

    Heure Température Précipitation Vent Pression Humidité
    00:00 +13°C° 0 mm 1 m/s 749 mmHg 89%
    01:00 +13°C° 0 mm 1 m/s 749 mmHg 90%
    02:00 +13°C° 0 mm 1 m/s 748 mmHg 90%
    03:00 +12°C° 0 mm 1 m/s 748 mmHg 90%
    04:00 +13°C° 0 mm 1 m/s 748 mmHg 88%
    05:00 +13°C° 0 mm 0 m/s 748 mmHg 86%
    06:00 +14°C° 0 mm 0 m/s 748 mmHg 84%
    07:00 +16°C° 0 mm 1 m/s 749 mmHg 78%
    08:00 +19°C° 0 mm 1 m/s 749 mmHg 72%
    09:00 +20°C° 0 mm 1 m/s 749 mmHg 66%
    10:00 +21°C° 0 mm 1 m/s 749 mmHg 63%
    11:00 +22°C° 0 mm 1 m/s 749 mmHg 60%
    12:00 +23°C° 0 mm 2 m/s 749 mmHg 57%
    13:00 +23°C° 0 mm 2 m/s 749 mmHg 58%
    14:00 +23°C° 0 mm 2 m/s 748 mmHg 59%
    15:00 +23°C° 0 mm 2 m/s 748 mmHg 60%
    16:00 +21°C° 0 mm 3 m/s 748 mmHg 62%
    17:00 +21°C° 0 mm 3 m/s 748 mmHg 64%
    18:00 +20°C° 0 mm 3 m/s 748 mmHg 66%
    19:00 +19°C° 0 mm 3 m/s 748 mmHg 72%
    20:00 +17°C° 0 mm 3 m/s 748 mmHg 78%
    21:00 +14°C° 0 mm 3 m/s 748 mmHg 85%
    22:00 +14°C° 0 mm 2 m/s 748 mmHg 85%
    23:00 +14°C° 0 mm 2 m/s 748 mmHg 86%

    Après-demain, 20 Juillet, Vendredi

    Heure Température Précipitation Vent Pression Humidité
    00:00 +13°C° 0 mm 2 m/s 748 mmHg 87%
    01:00 +13°C° 0 mm 2 m/s 747 mmHg 87%
    02:00 +12°C° 0 mm 2 m/s 747 mmHg 88%
    03:00 +12°C° 0 mm 2 m/s 747 mmHg 88%
    04:00 +13°C° 0 mm 2 m/s 747 mmHg 86%
    05:00 +13°C° 0 mm 1 m/s 747 mmHg 85%
    06:00 +14°C° 0 mm 1 m/s 747 mmHg 83%
    07:00 +16°C° 0 mm 1 m/s 747 mmHg 77%
    08:00 +17°C° 0 mm 2 m/s 747 mmHg 70%
    09:00 +19°C° 0 mm 2 m/s 747 mmHg 64%
    10:00 +20°C° 0 mm 2 m/s 747 mmHg 61%
    11:00 +21°C° 0 mm 3 m/s 747 mmHg 58%
    12:00 +22°C° 0 mm 3 m/s 747 mmHg 55%
    13:00 +22°C° 0 mm 4 m/s 747 mmHg 57%
    14:00 +22°C° 0 mm 4 m/s 746 mmHg 58%
    15:00 +22°C° 0 mm 5 m/s 746 mmHg 59%
    16:00 +21°C° 0 mm 5 m/s 746 mmHg 63%
    17:00 +21°C° 0 mm 5 m/s 746 mmHg 66%
    18:00 +20°C° 0 mm 5 m/s 746 mmHg 69%
    19:00 +19°C° 0 mm 4 m/s 746 mmHg 76%
    20:00 +17°C° 0 mm 3 m/s 746 mmHg 83%
    21:00 +16°C° 0 mm 3 m/s 746 mmHg 89%
    22:00 +14°C° 0 mm 3 m/s 746 mmHg 91%
    23:00 +14°C° 0 mm 3 m/s 746 mmHg 92%

    21 Juillet, Samedi

    Heure Température Précipitation Vent Pression Humidité
    00:00 +14°C° 0 mm 3 m/s 746 mmHg 94%
    01:00 +15°C° 0 mm 2 m/s 746 mmHg 94%
    02:00 +15°C° 0 mm 2 m/s 746 mmHg 94%
    03:00 +16°C° 0 mm 2 m/s 746 mmHg 95%
    04:00 +16°C° 0 mm 2 m/s 746 mmHg 94%
    05:00 +16°C° 0 mm 2 m/s 746 mmHg 93%
    06:00 +17°C° 0 mm 2 m/s 746 mmHg 93%
    07:00 +17°C° 0 mm 3 m/s 746 mmHg 88%
    08:00 +18°C° 0 mm 3 m/s 746 mmHg 84%
    09:00 +19°C° 0 mm 3 m/s 747 mmHg 80%
    10:00 +20°C° 0 mm 4 m/s 747 mmHg 76%
    11:00 +20°C° 0 mm 4 m/s 747 mmHg 73%
    12:00 +21°C° 0 mm 5 m/s 747 mmHg 69%
    13:00 +21°C° 0 mm 5 m/s 747 mmHg 66%
    14:00 +21°C° 0 mm 5 m/s 747 mmHg 63%
    15:00 +22°C° 0 mm 5 m/s 747 mmHg 60%
    16:00 +21°C° 0 mm 5 m/s 747 mmHg 62%
    17:00 +20°C° 0 mm 5 m/s 747 mmHg 63%
    18:00 +20°C° 0 mm 5 m/s 747 mmHg 65%
    19:00 +17°C° 0 mm 5 m/s 747 mmHg 72%
    20:00 +15°C° 0 mm 4 m/s 747 mmHg 80%
    21:00 +14°C° 0 mm 3 m/s 748 mmHg 88%
    22:00 +13°C° 0 mm 3 m/s 748 mmHg 90%
    23:00 +14°C° 0 mm 2 m/s 748 mmHg 92%

    22 Juillet, Dimanche

    Heure Température Précipitation Vent Pression Humidité
    00:00 +13°C° 0 mm 2 m/s 748 mmHg 93%
    01:00 +13°C° 0 mm 2 m/s 748 mmHg 93%
    02:00 +13°C° 0 mm 2 m/s 748 mmHg 94%
    03:00 +13°C° 0 mm 2 m/s 748 mmHg 94%
    04:00 +14°C° 0 mm 1 m/s 748 mmHg 92%
    05:00 +14°C° 0 mm 1 m/s 748 mmHg 90%
    06:00 +15°C° 0 mm 1 m/s 748 mmHg 89%
    07:00 +18°C° 0 mm 1 m/s 748 mmHg 83%
    08:00 +18°C° 0 mm 2 m/s 749 mmHg 76%
    09:00 +20°C° 0 mm 2 m/s 749 mmHg 70%
    10:00 +21°C° 0 mm 2 m/s 749 mmHg 68%
    11:00 +22°C° 0 mm 3 m/s 749 mmHg 66%
    12:00 +24°C° 0 mm 3 m/s 749 mmHg 64%
    13:00 +24°C° 0 mm 3 m/s 749 mmHg 65%
    14:00 +23°C° 0 mm 4 m/s 748 mmHg 65%
    15:00 +23°C° 0 mm 4 m/s 748 mmHg 65%
    16:00 +22°C° 0 mm 4 m/s 748 mmHg 68%
    17:00 +22°C° 0 mm 4 m/s 748 mmHg 70%
    18:00 +21°C° 0 mm 4 m/s 748 mmHg 72%
    19:00 +19°C° 0 mm 3 m/s 748 mmHg 78%
    20:00 +18°C° 0 mm 3 m/s 748 mmHg 85%
    21:00 +16°C° 0 mm 3 m/s 748 mmHg 91%
    22:00 +16°C° 0 mm 2 m/s 748 mmHg 93%
    23:00 +15°C° 0 mm 2 m/s 748 mmHg 94%

    23 Juillet, Lundi

    Heure Température Précipitation Vent Pression Humidité
    00:00 +15°C° 0 mm 2 m/s 748 mmHg 95%
    01:00 +14°C° 0 mm 2 m/s 748 mmHg 95%
    02:00 +14°C° 0 mm 2 m/s 747 mmHg 95%
    03:00 +14°C° 0 mm 2 m/s 747 mmHg 95%
    04:00 +14°C° 0 mm 2 m/s 747 mmHg 94%
    05:00 +15°C° 0 mm 2 m/s 747 mmHg 93%
    06:00 +16°C° 0 mm 2 m/s 747 mmHg 92%
    07:00 +17°C° 0 mm 2 m/s 747 mmHg 85%
    08:00 +18°C° 0 mm 3 m/s 747 mmHg 78%
    09:00 +20°C° 0 mm 3 m/s 747 mmHg 71%
    10:00 +20°C° 0 mm 3 m/s 746 mmHg 69%
    11:00 +20°C° 0 mm 3 m/s 746 mmHg 67%
    12:00 +21°C° 0 mm 3 m/s 746 mmHg 65%
    13:00 +21°C° 0 mm 3 m/s 746 mmHg 65%
    14:00 +21°C° 0 mm 3 m/s 746 mmHg 64%
    15:00 +22°C° 0 mm 3 m/s 746 mmHg 63%
    16:00 +21°C° 0 mm 3 m/s 745 mmHg 65%
    17:00 +21°C° 0 mm 3 m/s 745 mmHg 67%
    18:00 +20°C° 0 mm 3 m/s 745 mmHg 69%
    19:00 +19°C° 0 mm 2 m/s 745 mmHg 75%
    20:00 +17°C° 0 mm 2 m/s 745 mmHg 81%
    21:00 +16°C° 0 mm 1 m/s 745 mmHg 88%
    22:00 +15°C° 0 mm 1 m/s 745 mmHg 88%
    23:00 +15°C° 0 mm 1 m/s 744 mmHg 89%
    Voir plus